Погода в Краснополье

Россия / Сахалинская область     48°56′31″N   142°12′49″E
темп.,
°C
ветер,
м/с
пор.,
м/с
влажн.,
%
обл.,
%
осадки,
мм/ч
давл.,
гПа
погр.,
м
9 марта, вт
вт923:00−12юв23859 0.0 101952
02:00−10ю128987 0.1 101724
05:00−11юв128863 0.1 101623
08:00−11юв238670 0.0 101528
11:00−4ю388375 0.0 1013579
14:00−1ю4108935 0.0 1010845
17:000ююз6148240 0.0 10061121
20:00−1ююз51491100 0.1 10051140
10 марта, ср
ср1023:00−1ююз41198100 0.7 1004817
02:00−2зсз2498100 3.6 1002331
05:00−5сз3797100 4.2 1004339
08:00−9сз41395100 0.3 1006820
11:00−8ссз61491100 0.5 1009837
14:00−7ссз71491100 0.1 1011857
17:00−7ссз51385100 0.2 1013844
20:00−13сз12890 0.0 101739
11 марта, чт
чт1123:00−15вюв11860 0.0 101821
02:00−14юв11800 0.0 101720
05:00−13юв22824 0.0 101726
08:00−10ююв229596 0.2 101570
11:00−3зюз488198 1.4 10141071
14:00−3зсз578299 0.1 10131036
17:00−4сз4992100 0.6 1014960
20:00−7сз248960 0.1 1018107
12 марта, пт
пт1223:00−11сз119062 0.1 102130
02:00−12юв019787 0.0 102222
05:00−13вюв119044 0.0 102321
08:00−12юв128782 0.0 102425
11:00−5з489491 1.3 1025830
14:00−4зсз468599 0.3 1025909
17:00−5зсз258276 0.3 1024801
20:00−9ююв228641 0.0 102423
13 марта, сб
сб1323:00−11ююв238321 0.0 102426
02:00−8ююз239167 0.0 102180
05:00−6юз288949 0.0 1019201
08:00−6юз26860 0.0 1018103
11:000зюз49850 0.0 1017657
14:000зюз399828 0.0 1016602
17:00+1зюз3119414 0.0 1014605
20:00−1зюз38810 0.0 1014178